Weather History for Kalispell, MT

Change the Weather History Date:

Monday, December 3, 2012

  Actual Average Record
Temperature  
Mean Temperature 41 °F 26 °F  
Max Temperature 46 °F 32 °F 52 °F (1941)
Min Temperature 36 °F 19 °F -9 °F (1984)
Degree Days  
Heating Degree Days 24 40  
Month to date heating degree days 74 118  
Since 1 July heating degree days 2054 2322  
Cooling Degree Days 0 0  
Month to date cooling degree days 0 0  
Year to date cooling degree days 192 147  
Moisture  
Dew Point 32 °F    
Average Humidity 72    
Maximum Humidity 85    
Minimum Humidity 58    
Precipitation  
Precipitation 0.01 in 0.05 in 0.38 in (1941)
Month to date precipitation 0.37 0.15  
Year to date precipitation 19.51 15.58  
Snow  
Snow 0.00 in - - ()
Month to date snowfall 0.0  
Year to date snowfall 27.4  
Since 1 July snowfall 2.3  
Snow Depth 0.00 in    
Sea Level Pressure  
Sea Level Pressure 29.97 in    
Wind  
Wind Speed 8 mph (SSW)    
Max Wind Speed 17 mph    
Max Gust Speed 24 mph    
Visibility 10 miles    
Events Rain    
T = Trace of Precipitation, MM = Missing Value Source: NWS Daily Summary

Daily Weather History Graph

Daily Weather History Graph

Search for Another Location

Airport:

Trip Planner

Search our weather history database for the weather conditions in past years. The results will help you decide how hot, cold, wet, or windy it might be!

Date:

Astronomy

Dec. 03, 2012 Rise Set
Actual Time 8:10 AM MST 4:43 PM MST
Civil Twilight 7:34 AM MST 5:19 PM MST
Nautical Twilight 6:54 AM MST 5:59 PM MST
Astronomical Twilight 6:17 AM MST 6:36 PM MST
Moon 9:48 PM MST (12/3) 11:23 AM MST (12/3)
Length of Visible Light 9h 45m
Length of Day
8h 33m
Waning Gibbous, 77% of the Moon is Illuminated
Dec 3
Waning Gibbous
Dec 6
Last Quarter
Dec 13
New
Dec 19
First Quarter
Dec 28
Full

Hourly Weather History & Observations

Time (MST) Temp. Windchill Dew Point Humidity Pressure Visibility Wind Dir Wind Speed Gust Speed Precip Events Conditions
12:55 AM 37.9 °F 32.7 °F 30.9 °F 76% 29.79 in 10.0 mi SSE 6.9 mph - N/A   Overcast
1:55 AM 39.0 °F 32.3 °F 30.0 °F 70% 29.81 in 10.0 mi South 10.4 mph - N/A   Overcast
2:55 AM 39.0 °F 34.8 °F 30.0 °F 70% 29.82 in 10.0 mi South 5.8 mph - N/A   Overcast
3:55 AM 39.9 °F - 30.0 °F 68% 29.84 in 10.0 mi North - - N/A   Overcast
4:55 AM 39.9 °F 33.4 °F 30.0 °F 68% 29.86 in 10.0 mi South 10.4 mph - N/A   Overcast
5:55 AM 39.0 °F 34.0 °F 30.0 °F 70% 29.88 in 10.0 mi SSW 6.9 mph - N/A   Overcast
6:55 AM 39.9 °F 32.9 °F 30.0 °F 68% 29.89 in 10.0 mi SSW 11.5 mph - N/A   Overcast
7:55 AM 39.9 °F 34.5 °F 30.0 °F 68% 29.92 in 10.0 mi SSW 8.1 mph - N/A   Overcast
8:55 AM 39.9 °F 35.8 °F 30.9 °F 70% 29.93 in 10.0 mi SSW 5.8 mph - N/A   Overcast
9:52 AM 39.2 °F 31.2 °F 32.0 °F 75% 29.90 in 10.0 mi South 13.8 mph 17.3 mph 0.00 in Rain Light Rain
9:55 AM 39.9 °F 33.9 °F 32.0 °F 73% 29.95 in 10.0 mi SSW 9.2 mph - 0.01 in Rain Light Rain
10:03 AM 39.2 °F 32.5 °F 32.0 °F 75% 29.91 in 10.0 mi SSW 10.4 mph - 0.00 in Rain Light Rain
10:55 AM 41.0 °F 37.1 °F 33.1 °F 73% 29.97 in 10.0 mi South 5.8 mph - 0.00 in   Mostly Cloudy
11:55 AM 43.0 °F 36.8 °F 32.0 °F 65% 29.98 in 10.0 mi SSW 11.5 mph - N/A   Overcast
12:55 PM 44.1 °F 37.4 °F 30.9 °F 60% 29.98 in 10.0 mi South 13.8 mph - N/A   Overcast
1:55 PM 43.0 °F 38.2 °F 30.9 °F 62% 29.99 in 10.0 mi SW 8.1 mph - N/A   Overcast
2:55 PM 41.0 °F 36.4 °F 34.0 °F 76% 30.01 in 10.0 mi SSE 6.9 mph - 0.00 in Rain Light Rain
3:55 PM 41.0 °F 36.4 °F 33.1 °F 73% 30.03 in 10.0 mi SSW 6.9 mph - 0.00 in Rain Light Rain
4:55 PM 41.0 °F 35.2 °F 32.0 °F 70% 30.06 in 10.0 mi SSW 9.2 mph - 0.00 in   Overcast
5:55 PM 39.0 °F 34.0 °F 30.9 °F 73% 30.08 in 10.0 mi South 6.9 mph - N/A   Mostly Cloudy
6:55 PM 39.9 °F 35.8 °F 32.0 °F 73% 30.10 in 10.0 mi South 5.8 mph - N/A   Overcast
7:55 PM 39.9 °F 35.8 °F 32.0 °F 73% 30.12 in 10.0 mi SSW 5.8 mph - 0.00 in   Overcast
8:55 PM 39.0 °F 34.8 °F 33.1 °F 79% 30.12 in 10.0 mi SSE 5.8 mph - 0.00 in   Overcast
9:55 PM 39.0 °F 36.8 °F 33.1 °F 79% 30.12 in 10.0 mi SW 3.5 mph - N/A   Overcast
10:55 PM 37.9 °F 32.7 °F 33.1 °F 83% 30.12 in 10.0 mi SSW 6.9 mph - N/A   Overcast
11:55 PM 36.0 °F 32.1 °F 33.1 °F 89% 30.10 in 10.0 mi SSW 4.6 mph - N/A   Overcast